Regional Weather Roundup
Issued by NWS Northern Indiana

Home | Current Version | Previous Version | Text Only | Print | Product List | Glossary Off
Versions: 1 2 3 4 5 6 7 8 9 10 11 12 13 14 15 16 17 18 19 20 21 22 23 24 25 26 27 28 29 30 31 32 33 34 35 36 37 38 39 40 41 42 43 44 45 46 47 48 49 50

000
ASUS43 KIWX 190810
RWRIWX

KIWX WEATHER ROUNDUP
NATIONAL WEATHER SERVICE NORTHERN INDIANA
300 AM EST SUN NOV 19 2017

NOTE: "FAIR" INDICATES FEW OR NO CLOUDS BELOW 12,000 FEET WITH NO
SIGNIFICANT WEATHER AND/OR OBSTRUCTIONS TO VISIBILITY.

* THESE STATIONS ARE NOT UNDER NWS QUALITY CONTROL. THEY ALSO MAY NOT
  REPORT WEATHER SUCH AS PRECIPITATION OR FOG.

INZ001>027-190900-
NORTHERN INDIANA

CITY           SKY/WX    TMP DP  RH WIND       PRES   REMARKS
GARY*          CLOUDY    38  27  62 NW10G18   29.87R
VALPARAISO     CLOUDY    39  29  67 NW12      29.85R
LAPORTE*       CLOUDY    37  29  73 NW17G24   29.83R
KNOX*          CLOUDY    37  32  81 NW13      29.83R
SOUTH BEND     CLOUDY    37  31  78 NW15      29.81R
GOSHEN         CLOUDY    38  29  70 NW15G21   29.79R
MONTICELLO*    CLOUDY    37  30  76 NW10G16   29.87R
LOGANSPORT*    CLOUDY    36  30  80 W10G16    29.86R
ROCHESTER*     CLOUDY    39  32  75 W9        29.83R
WARSAW*        CLOUDY    37  32  81 NW14      29.80R
AUBURN*        RAIN      36  32  87 NW15G26   29.78R
FORT WAYNE     CLOUDY    40  31  70 W13       29.79R
HUNTINGTON*    CLOUDY    38  31  76 NW8       29.80R
PERU/GRISSOM   CLOUDY    37  32  82 W13       29.83R
MARION*        CLOUDY    37  32  82 W17       29.84R

$$
INZ028>050-190900-
CENTRAL INDIANA

CITY           SKY/WX    TMP DP  RH WIND       PRES   REMARKS
LAFAYETTE      CLOUDY    37  32  82 W12       29.89R
MUNCIE*        CLOUDY    39  31  72 W17G23    29.83R
INDIANAPOLIS   CLOUDY    38  29  70 NW15G22   29.90R

$$
MIZ043>046-050>051-056>058-064>065-071>073-077>080-190900-
SOUTHWEST LOWER MICHIGAN

CITY           SKY/WX    TMP DP  RH WIND       PRES   REMARKS
BATTLE CREEK   CLOUDY    36  30  79 NW15G24   29.75R
BENTON HARBOR  CLOUDY    39  28  64 NW9G18    29.80R
COLDWATER*     CLOUDY    37  31  79 NW10G16   29.75R
HILLSDALE*     CLOUDY    36  30  80 NW12      29.71R
HOLLAND        FLURRIES  37  30  75 N8        29.78R
GRAND RAPIDS   CLOUDY    35  28  75 NW18G32   29.75R WCI  24
KALAMAZOO      LGT RAIN  35  30  82 NW9       29.77R WCI  28
STURGIS*       CLOUDY    36  32  87 NW9       29.76R
THREE RIVERS*  CLOUDY    38  33  82 NW9G18    29.77R

$$
OHZ001>008-015>018-024>025-190900-
NORTHWEST OHIO

CITY           SKY/WX    TMP DP  RH WIND       PRES   REMARKS
WAUSEON*       CLOUDY    39  34  81 NW18G26   29.71R
DEFIANCE       CLOUDY    39  30  70 NW17G28   29.75R
FINDLAY        CLOUDY    40  32  73 NW22G29   29.71R
TOLEDO EXPRESS CLOUDY    40  30  67 NW14G25   29.70R
TOLEDO METCALF CLOUDY    39  32  76 W17       29.70R

$$
AND FOR LAKE MICHIGAN COASTAL AND OPEN LAKE BUOY OBSERVATIONS

STATION/POSITION TEMP    WIND        PRES    VSBY  WAVE
                 AIR SEA DIR/SP/G                  HT/PER
                 (F)     (DEG/KT/KT) (MB)    (MI)  (FT/S)
MICHIGAN CITY     38     300/ 21/ 24   N/A
BURNS HARBOR      40     300/ 16/ 21 1010.8R
SAINT JOSEPH      40     320/ 15/ 21 1009.8
SOUTH LAKE BUOY   39 49  340/ 21/ 27 1009.0          8/ 8

$$
&&




USA.gov is the U.S. government's official web portal to all federal, state and local government web resources and services.